| time (UTC) | temp C | wind direction | speed KPH | gust KPH | rain 1hr cm | rain 24hr cm | rain mn cm | humidity % | barometer mb |
| 20260509202000 | 13 | 225 | 6.4 | 17.7 | 0.00 | 0.00 | 0.00 | 69 | 1005.3 |
| 20260509201457 | 13 | 225 | 6.4 | 22.5 | 0.00 | 0.00 | 0.00 | 69 | 1005.3 |
| 20260509200955 | 13 | 270 | 6.4 | 22.5 | 0.00 | 0.00 | 0.00 | 67 | 1005.3 |
| 20260509200450 | 13 | 225 | 9.7 | 17.7 | 0.00 | 0.00 | 0.00 | 67 | 1005.1 |
| 20260509195948 | 13 | 225 | 8.0 | 14.5 | 0.00 | 0.00 | 0.00 | 67 | 1004.8 |
| 20260509195445 | 13 | 248 | 8.0 | 25.7 | 0.00 | 0.00 | 0.00 | 65 | 1004.7 |
| 20260509194944 | 13 | 225 | 12.9 | 25.7 | 0.00 | 0.00 | 0.00 | 66 | 1004.6 |
| 20260509194439 | 14 | 293 | 4.8 | 14.5 | 0.00 | 0.00 | 0.00 | 68 | 1004.9 |
| 20260509193931 | 14 | 225 | 4.8 | 17.7 | 0.00 | 0.00 | 0.00 | 66 | 1004.8 |
| 20260509193430 | 14 | 248 | 9.7 | 17.7 | 0.00 | 0.00 | 0.00 | 66 | 1004.7 |
| 20260509192930 | 14 | 293 | 3.2 | 14.5 | 0.00 | 0.00 | 0.00 | 66 | 1004.5 |
| 20260509192431 | 14 | 270 | 8.0 | 17.7 | 0.00 | 0.00 | 0.00 | 64 | 1004.7 |
| 20260509191932 | 14 | 248 | 8.0 | 17.7 | 0.00 | 0.00 | 0.00 | 62 | 1004.7 |
| 20260509190930 | 15 | 270 | 8.0 | 17.7 | 0.00 | 0.00 | 0.00 | 63 | 1004.8 |
| 20260509190429 | 15 | 293 | 6.4 | 17.7 | 0.00 | 0.00 | 0.00 | 62 | 1004.3 |
| 20260509185930 | 15 | 225 | 6.4 | 20.9 | 0.00 | 0.00 | 0.00 | 61 | 1004.6 |
| 20260509185429 | 15 | 270 | 8.0 | 20.9 | 0.00 | 0.00 | 0.00 | 61 | 1004.6 |
| 20260509184930 | 15 | 293 | 8.0 | 17.7 | 0.00 | 0.00 | 0.00 | 61 | 1004.7 |
| 20260509184430 | 15 | 248 | 6.4 | 14.5 | 0.00 | 0.00 | 0.00 | 62 | 1004.6 |
| 20260509183930 | 15 | 270 | 6.4 | 20.9 | 0.00 | 0.00 | 0.00 | 60 | 1004.5 |
| 20260509183430 | 15 | 315 | 11.3 | 20.9 | 0.00 | 0.00 | 0.00 | 61 | 1004.6 |
| 20260509182929 | 15 | 248 | 11.3 | 17.7 | 0.00 | 0.00 | 0.00 | 60 | 1004.7 |
| 20260509182430 | 15 | 293 | 6.4 | 20.9 | 0.00 | 0.00 | 0.00 | 60 | 1004.5 |
| 20260509181930 | 15 | 270 | 8.0 | 20.9 | 0.00 | 0.00 | 0.00 | 61 | 1004.9 |
| 20260509174932 | 16 | 225 | 4.8 | 14.5 | 0.00 | 0.00 | 0.00 | 63 | 1004.8 |
| 20260509173930 | 16 | 225 | 6.4 | 17.7 | 0.00 | 0.00 | 0.00 | 62 | 1004.9 |
| 20260509173429 | 16 | 248 | 6.4 | 17.7 | 0.00 | 0.00 | 0.00 | 61 | 1005.2 |
| 20260509172949 | 16 | 270 | 3.2 | 14.5 | 0.00 | 0.00 | 0.00 | 62 | 1004.7 |
| 20260509172428 | 16 | 293 | 6.4 | 14.5 | 0.00 | 0.00 | 0.00 | 64 | 1005.1 |
| 20260509171431 | 16 | 270 | 3.2 | 17.7 | 0.00 | 0.00 | 0.00 | 65 | 1004.7 |
| 20260509170929 | 15 | 135 | 4.8 | 17.7 | 0.00 | 0.00 | 0.00 | 63 | 1004.8 |
| 20260509170429 | 15 | 338 | 6.4 | 14.5 | 0.00 | 0.00 | 0.00 | 63 | 1005.1 |
| 20260509165430 | 15 | 248 | 9.7 | 22.5 | 0.00 | 0.00 | 0.00 | 62 | 1005.0 |
| 20260509164929 | 16 | 270 | 4.8 | 14.5 | 0.00 | 0.00 | 0.00 | 62 | 1004.9 |
| 20260509164429 | 15 | 68 | 4.8 | 14.5 | 0.00 | 0.00 | 0.00 | 63 | 1005.1 |
| 20260509163931 | 15 | 315 | 8.0 | 14.5 | 0.00 | 0.00 | 0.00 | 62 | 1005.1 |
| 20260509163431 | 15 | 225 | 6.4 | 17.7 | 0.00 | 0.00 | 0.00 | 61 | 1005.3 |
| 20260509162930 | 14 | 270 | 9.7 | 17.7 | 0.00 | 0.00 | 0.00 | 59 | 1005.4 |
| 20260509162432 | 15 | 293 | 8.0 | 17.7 | 0.00 | 0.00 | 0.00 | 60 | 1005.7 |
| 20260509161429 | 14 | 248 | 4.8 | 17.7 | 0.00 | 0.00 | 0.00 | 57 | 1005.7 |
| 20260509160929 | 14 | 270 | 8.0 | 17.7 | 0.00 | 0.00 | 0.00 | 55 | 1005.5 |
| 20260509160430 | 15 | 203 | 6.4 | 17.7 | 0.00 | 0.00 | 0.00 | 56 | 1005.5 |
| 20260509155931 | 14 | 248 | 9.7 | 17.7 | 0.00 | 0.00 | 0.00 | 54 | 1005.8 |
| 20260509155430 | 15 | 315 | 3.2 | 12.9 | 0.00 | 0.00 | 0.00 | 57 | 1005.9 |
| 20260509154930 | 15 | 315 | 6.4 | 12.9 | 0.00 | 0.00 | 0.00 | 59 | 1005.8 |
| 20260509154429 | 15 | 293 | 6.4 | 11.3 | 0.00 | 0.00 | 0.00 | 55 | 1005.7 |
| 20260509153929 | 14 | 338 | 4.8 | 9.7 | 0.00 | 0.00 | 0.00 | 62 | 1005.8 |
| 20260509153429 | 14 | 0 | 4.8 | 9.7 | 0.00 | 0.00 | 0.00 | 61 | 1005.6 |
| 20260509152931 | 14 | 23 | 4.8 | 9.7 | 0.00 | 0.00 | 0.00 | 63 | 1006.0 |
| 20260509152429 | 13 | 0 | 4.8 | 6.4 | 0.00 | 0.00 | 0.00 | 65 | 1005.9 |
| 20260509151929 | 13 | 0 | 6.4 | 6.4 | 0.00 | 0.00 | 0.00 | 61 | 1006.0 |
| 20260509151431 | 13 | 0 | 3.2 | 9.7 | 0.00 | 0.00 | 0.00 | 66 | 1005.9 |
| 20260509150930 | 13 | 0 | 6.4 | 9.7 | 0.00 | 0.00 | 0.00 | 67 | 1005.9 |
| 20260509145930 | 12 | 338 | 3.2 | 9.7 | 0.00 | 0.00 | 0.00 | 67 | 1006.2 |
| 20260509145430 | 13 | 338 | 3.2 | 9.7 | 0.00 | 0.00 | 0.00 | 70 | 1005.9 |
| 20260509144949 | 12 | 338 | 4.8 | 6.4 | 0.00 | 0.00 | 0.00 | 70 | 1006.0 |
| 20260509144431 | 12 | 338 | 3.2 | 6.4 | 0.00 | 0.00 | 0.00 | 71 | 1005.9 |
| 20260509143929 | 12 | 23 | 3.2 | 6.4 | 0.00 | 0.00 | 0.00 | 72 | 1005.7 |
| 20260509143430 | 12 | 23 | 4.8 | 6.4 | 0.00 | 0.00 | 0.00 | 71 | 1005.9 |
| 20260509142930 | 12 | 338 | 3.2 | 6.4 | 0.00 | 0.00 | 0.00 | 74 | 1005.9 |
| 20260509141924 | 12 | 338 | 3.2 | 6.4 | 0.00 | 0.00 | 0.00 | 71 | 1005.9 |
| 20260509135913 | 12 | 293 | 1.6 | 3.2 | 0.00 | 0.00 | 0.00 | 68 | 1005.9 |
| 20260509135411 | 12 | 23 | 3.2 | 3.2 | 0.00 | 0.00 | 0.00 | 68 | 1005.8 |
| 20260509133904 | 11 | 0 | 1.6 | 3.2 | 0.00 | 0.00 | 0.00 | 68 | 1006.0 |
| 20260509133403 | 11 | 293 | 0.0 | 3.2 | 0.00 | 0.00 | 0.00 | 65 | 1005.8 |
| 20260509132901 | 11 | 270 | 1.6 | 3.2 | 0.00 | 0.00 | 0.00 | 68 | 1005.8 |
| 20260509132401 | 11 | 0 | 0.0 | 3.2 | 0.00 | 0.00 | 0.00 | 78 | 1005.7 |
| 20260509131901 | 10 | 90 | 1.6 | 3.2 | 0.00 | 0.00 | 0.00 | 82 | 1005.8 |
| 20260509131403 | 10 | 45 | 0.0 | 3.2 | 0.00 | 0.00 | 0.00 | 82 | 1006.0 |
| 20260509130904 | 10 | 23 | 0.0 | 3.2 | 0.00 | 0.00 | 0.00 | 86 | 1005.8 |
| 20260509130401 | 10 | 45 | 0.0 | 3.2 | 0.00 | 0.00 | 0.00 | 87 | 1005.8 |
| 20260509125401 | 10 | 338 | 3.2 | 6.4 | 0.00 | 0.00 | 0.00 | 88 | 1005.9 |
| 20260509124901 | 10 | 338 | 3.2 | 6.4 | 0.00 | 0.00 | 0.00 | 87 | 1005.6 |
| 20260509124402 | 10 | 338 | 3.2 | 3.2 | 0.00 | 0.00 | 0.00 | 85 | 1005.6 |
| 20260509123901 | 9 | 315 | 1.6 | 3.2 | 0.00 | 0.00 | 0.00 | 80 | 1005.3 |
| 20260509122901 | 8 | 225 | 1.6 | 3.2 | 0.00 | 0.00 | 0.00 | 84 | 1005.1 |
| 20260509122401 | 8 | 248 | 3.2 | 3.2 | 0.00 | 0.00 | 0.00 | 84 | 1005.0 |
| 20260509121901 | 9 | 338 | 1.6 | 3.2 | 0.00 | 0.00 | 0.00 | 86 | 1005.0 |
| 20260509121402 | 8 | 0 | 0.0 | 3.2 | 0.00 | 0.00 | 0.00 | 86 | 1004.7 |
| 20260509120902 | 8 | 338 | 1.6 | 3.2 | 0.00 | 0.00 | 0.00 | 85 | 1004.9 |
| 20260509120404 | 8 | 293 | 1.6 | 3.2 | 0.00 | 0.00 | 0.00 | 84 | 1004.6 |
| 20260509115901 | 8 | 293 | 0.0 | 6.4 | 0.00 | 0.00 | 0.00 | 85 | 1004.4 |
| 20260509115402 | 8 | 270 | 1.6 | 6.4 | 0.00 | 0.00 | 0.00 | 85 | 1004.3 |
| 20260509114901 | 8 | 270 | 3.2 | 6.4 | 0.00 | 0.00 | 0.00 | 86 | 1004.0 |
| 20260509114403 | 8 | 248 | 1.6 | 3.2 | 0.00 | 0.00 | 0.00 | 86 | 1003.8 |
| 20260509113903 | 8 | 248 | 0.0 | 0.0 | 0.00 | 0.00 | 0.00 | 86 | 1004.2 |
| 20260509112901 | 8 | 270 | 0.0 | 3.2 | 0.00 | 0.00 | 0.00 | 85 | 1004.0 |
| 20260509112412 | 8 | 270 | 0.0 | 3.2 | 0.00 | 0.00 | 0.00 | 87 | 1004.2 |
| 20260509111402 | 7 | 248 | 1.6 | 3.2 | 0.00 | 0.00 | 0.00 | 88 | 1003.7 |
| 20260509110901 | 7 | 248 | 0.0 | 3.2 | 0.00 | 0.00 | 0.00 | 89 | 1003.5 |
| 20260509105401 | 7 | 248 | 1.6 | 3.2 | 0.00 | 0.00 | 0.00 | 92 | 1003.6 |
| 20260509104902 | 7 | 338 | 0.0 | 0.0 | 0.00 | 0.00 | 0.00 | 93 | 1003.5 |
| 20260509104404 | 7 | 0 | 0.0 | 0.0 | 0.00 | 0.00 | 0.00 | 93 | 1003.5 |
| 20260509103901 | 7 | 0 | 0.0 | 0.0 | 0.00 | 0.00 | 0.00 | 93 | 1003.4 |
| 20260509103401 | 7 | 0 | 0.0 | 0.0 | 0.00 | 0.00 | 0.00 | 93 | 1003.3 |
| 20260509102401 | 7 | 0 | 0.0 | 0.0 | 0.00 | 0.00 | 0.00 | 92 | 1003.1 |
| 20260509101902 | 7 | 0 | 0.0 | 0.0 | 0.00 | 0.00 | 0.00 | 92 | 1003.0 |
| 20260509101403 | 7 | 0 | 0.0 | 0.0 | 0.00 | 0.00 | 0.00 | 92 | 1002.9 |
| 20260509100902 | 7 | 0 | 0.0 | 0.0 | 0.00 | 0.00 | 0.00 | 92 | 1002.9 |
| 20260509100402 | 7 | 0 | 0.0 | 0.0 | 0.00 | 0.00 | 0.00 | 92 | 1002.6 |
| 20260509095403 | 7 | 0 | 0.0 | 0.0 | 0.00 | 0.00 | 0.00 | 92 | 1002.8 |
| 20260509094901 | 7 | 0 | 0.0 | 0.0 | 0.00 | 0.00 | 0.00 | 91 | 1002.6 |
| 20260509094401 | 7 | 0 | 0.0 | 0.0 | 0.00 | 0.00 | 0.00 | 89 | 1002.4 |
| 20260509093903 | 7 | 45 | 0.0 | 0.0 | 0.00 | 0.00 | 0.00 | 89 | 1002.5 |
| 20260509093402 | 7 | 45 | 0.0 | 0.0 | 0.00 | 0.00 | 0.00 | 89 | 1002.4 |
| 20260509092903 | 6 | 68 | 0.0 | 0.0 | 0.00 | 0.00 | 0.00 | 91 | 1002.3 |
| 20260509092402 | 7 | 338 | 0.0 | 0.0 | 0.00 | 0.00 | 0.00 | 93 | 1002.2 |
| 20260509091901 | 7 | 338 | 0.0 | 0.0 | 0.00 | 0.00 | 0.00 | 93 | 1002.3 |
| 20260509091403 | 6 | 338 | 0.0 | 0.0 | 0.00 | 0.00 | 0.00 | 93 | 1002.4 |
| 20260509090901 | 6 | 338 | 0.0 | 0.0 | 0.00 | 0.00 | 0.00 | 93 | 1001.9 |
| 20260509090403 | 6 | 338 | 0.0 | 0.0 | 0.00 | 0.00 | 0.00 | 93 | 1001.8 |
| 20260509085903 | 6 | 338 | 0.0 | 0.0 | 0.00 | 0.00 | 0.00 | 92 | 1002.0 |
| 20260509085403 | 6 | 315 | 0.0 | 0.0 | 0.00 | 0.00 | 0.00 | 92 | 1001.7 |
| 20260509084901 | 6 | 315 | 0.0 | 0.0 | 0.00 | 0.00 | 0.00 | 92 | 1001.3 |
| 20260509084403 | 6 | 270 | 0.0 | 0.0 | 0.00 | 0.00 | 0.00 | 92 | 1001.7 |
| 20260509083401 | 5 | 270 | 0.0 | 0.0 | 0.00 | 0.00 | 0.00 | 91 | 1001.2 |
| 20260509082901 | 5 | 270 | 0.0 | 0.0 | 0.00 | 0.00 | 0.00 | 91 | 1001.1 |
| 20260509081901 | 5 | 203 | 0.0 | 0.0 | 0.00 | 0.00 | 0.00 | 90 | 1000.7 |
| 20260509081402 | 5 | 203 | 0.0 | 0.0 | 0.00 | 0.00 | 0.00 | 91 | 1000.8 |
| 20260509080902 | 5 | 203 | 0.0 | 0.0 | 0.00 | 0.00 | 0.00 | 91 | 1000.6 |
| 20260509080403 | 5 | 203 | 0.0 | 0.0 | 0.00 | 0.00 | 0.00 | 91 | 1000.6 |
| 20260509075401 | 6 | 203 | 0.0 | 0.0 | 0.00 | 0.00 | 0.00 | 90 | 1000.5 |
| 20260509074902 | 6 | 203 | 0.0 | 3.2 | 0.00 | 0.00 | 0.00 | 88 | 1000.2 |
| 20260509074402 | 6 | 203 | 0.0 | 3.2 | 0.00 | 0.00 | 0.00 | 86 | 1000.1 |
| 20260509073902 | 6 | 203 | 0.0 | 6.4 | 0.00 | 0.00 | 0.00 | 83 | 1000.3 |
| 20260509073401 | 6 | 225 | 1.6 | 6.4 | 0.00 | 0.00 | 0.00 | 85 | 1000.2 |
| 20260509072901 | 6 | 180 | 1.6 | 6.4 | 0.00 | 0.00 | 0.00 | 86 | 1000.1 |
| 20260509072401 | 7 | 248 | 0.0 | 3.2 | 0.00 | 0.00 | 0.00 | 84 | 1000.3 |
| 20260509071902 | 7 | 248 | 1.6 | 3.2 | 0.00 | 0.00 | 0.00 | 83 | 1000.5 |
| 20260509071401 | 6 | 248 | 0.0 | 3.2 | 0.00 | 0.00 | 0.00 | 84 | 1000.4 |
| 20260509070401 | 6 | 225 | 0.0 | 3.2 | 0.00 | 0.00 | 0.00 | 89 | 1000.5 |
| 20260509065900 | 6 | 203 | 3.2 | 3.2 | 0.00 | 0.00 | 0.00 | 92 | 1000.4 |
| 20260509065401 | 5 | 315 | 0.0 | 0.0 | 0.00 | 0.00 | 0.00 | 93 | 1000.5 |
| 20260509064903 | 5 | 315 | 0.0 | 0.0 | 0.00 | 0.00 | 0.00 | 93 | 1000.3 |
| 20260509064403 | 6 | 315 | 0.0 | 0.0 | 0.00 | 0.00 | 0.00 | 92 | 1000.5 |
| 20260509063401 | 6 | 315 | 0.0 | 0.0 | 0.00 | 0.00 | 0.00 | 92 | 1000.4 |
| 20260509062901 | 6 | 315 | 0.0 | 0.0 | 0.00 | 0.00 | 0.00 | 92 | 1000.6 |
| 20260509062401 | 6 | 315 | 0.0 | 0.0 | 0.00 | 0.00 | 0.00 | 92 | 1000.5 |
| 20260509060859 | 6 | 315 | 0.0 | 0.0 | 0.00 | 0.00 | 0.00 | 93 | 1000.6 |
| 20260509060357 | 6 | 315 | 0.0 | 0.0 | 0.00 | 0.00 | 0.00 | 93 | 1000.6 |
| 20260509055853 | 6 | 315 | 0.0 | 0.0 | 0.00 | 0.00 | 0.00 | 93 | 1000.7 |
| 20260509054344 | 6 | 315 | 0.0 | 0.0 | 0.00 | 0.00 | 0.00 | 93 | 1000.8 |
| 20260509053841 | 6 | 315 | 0.0 | 0.0 | 0.00 | 0.00 | 0.00 | 93 | 1000.7 |
| 20260509053330 | 6 | 315 | 0.0 | 0.0 | 0.00 | 0.00 | 0.00 | 93 | 1000.7 |
| 20260509052831 | 6 | 315 | 0.0 | 0.0 | 0.00 | 0.00 | 0.00 | 93 | 1000.6 |
| 20260509051831 | 6 | 315 | 0.0 | 0.0 | 0.00 | 0.00 | 0.00 | 92 | 1000.6 |
| 20260509051327 | 7 | 315 | 0.0 | 0.0 | 0.00 | 0.00 | 0.00 | 92 | 1000.3 |
| 20260509050824 | 7 | 315 | 0.0 | 0.0 | 0.00 | 0.00 | 0.00 | 92 | 1000.2 |
| 20260509050323 | 7 | 315 | 0.0 | 0.0 | 0.00 | 0.00 | 0.00 | 92 | 1000.3 |
| 20260509045818 | 7 | 315 | 0.0 | 0.0 | 0.00 | 0.00 | 0.00 | 92 | 1000.4 |
| 20260509045316 | 7 | 315 | 0.0 | 0.0 | 0.00 | 0.00 | 0.00 | 92 | 1000.3 |
| 20260509044814 | 7 | 315 | 0.0 | 3.2 | 0.00 | 0.00 | 0.00 | 92 | 1000.5 |
| 20260509044309 | 7 | 315 | 0.0 | 3.2 | 0.00 | 0.00 | 0.00 | 93 | 1000.1 |
| 20260509043802 | 7 | 315 | 1.6 | 3.2 | 0.00 | 0.00 | 0.00 | 93 | 1000.2 |
| 20260509043304 | 7 | 315 | 0.0 | 0.0 | 0.00 | 0.00 | 0.00 | 93 | 1000.4 |
| 20260509042804 | 7 | 315 | 0.0 | 0.0 | 0.00 | 0.00 | 0.00 | 93 | 1000.3 |
| 20260509042301 | 7 | 315 | 0.0 | 3.2 | 0.00 | 0.00 | 0.00 | 93 | 1000.3 |
| 20260509041301 | 7 | 315 | 0.0 | 3.2 | 0.00 | 0.00 | 0.00 | 93 | 999.7 |
| 20260509040802 | 7 | 315 | 0.0 | 3.2 | 0.00 | 0.00 | 0.00 | 93 | 999.9 |
| 20260509035801 | 6 | 315 | 0.0 | 3.2 | 0.00 | 0.00 | 0.00 | 93 | 999.9 |
| 20260509035301 | 6 | 315 | 1.6 | 3.2 | 0.00 | 0.00 | 0.00 | 93 | 999.9 |
| 20260509034302 | 6 | 315 | 0.0 | 3.2 | 0.00 | 0.00 | 0.00 | 93 | 999.4 |
| 20260509033805 | 6 | 315 | 0.0 | 3.2 | 0.00 | 0.00 | 0.00 | 93 | 999.7 |
| 20260509033301 | 6 | 315 | 0.0 | 3.2 | 0.00 | 0.00 | 0.00 | 93 | 999.5 |
| 20260509032802 | 6 | 315 | 0.0 | 3.2 | 0.00 | 0.00 | 0.00 | 93 | 999.5 |
| 20260509032306 | 6 | 315 | 0.0 | 3.2 | 0.00 | 0.00 | 0.00 | 93 | 999.5 |
| 20260509031801 | 6 | 315 | 0.0 | 3.2 | 0.00 | 0.03 | 0.00 | 93 | 999.3 |
| 20260509031303 | 6 | 315 | 0.0 | 3.2 | 0.00 | 0.03 | 0.00 | 93 | 999.3 |
| 20260509030804 | 6 | 315 | 0.0 | 3.2 | 0.00 | 0.03 | 0.00 | 93 | 999.4 |
| 20260509030303 | 6 | 315 | 0.0 | 3.2 | 0.00 | 0.03 | 0.00 | 94 | 999.4 |
| 20260509025801 | 6 | 315 | 0.0 | 3.2 | 0.00 | 0.03 | 0.03 | 94 | 999.8 |
| 20260509024833 | 6 | 315 | 0.0 | 3.2 | 0.00 | 0.03 | 0.03 | 94 | 999.4 |
| 20260509024303 | 6 | 315 | 0.0 | 3.2 | 0.00 | 0.03 | 0.03 | 94 | 999.5 |
| 20260509023803 | 6 | 315 | 0.0 | 3.2 | 0.00 | 0.03 | 0.03 | 93 | 999.2 |
| 20260509023301 | 6 | 315 | 1.6 | 3.2 | 0.00 | 0.03 | 0.03 | 93 | 999.3 |
| 20260509022801 | 6 | 315 | 0.0 | 3.2 | 0.00 | 0.03 | 0.03 | 93 | 998.9 |
| 20260509022300 | 6 | 315 | 0.0 | 0.0 | 0.00 | 0.03 | 0.03 | 93 | 999.0 |
| 20260509021256 | 6 | 315 | 0.0 | 3.2 | 0.00 | 0.05 | 0.03 | 93 | 998.9 |
| 20260509020249 | 6 | 315 | 1.6 | 3.2 | 0.00 | 0.05 | 0.03 | 93 | 999.0 |
| 20260509015748 | 7 | 315 | 0.0 | 3.2 | 0.00 | 0.05 | 0.03 | 93 | 998.8 |
| 20260509015243 | 7 | 315 | 0.0 | 3.2 | 0.00 | 0.05 | 0.03 | 93 | 998.9 |
| 20260509014741 | 6 | 315 | 0.0 | 0.0 | 0.00 | 0.05 | 0.03 | 93 | 998.8 |
| 20260509013232 | 7 | 315 | 1.6 | 3.2 | 0.00 | 0.10 | 0.03 | 92 | 998.7 |
| 20260509012732 | 7 | 315 | 1.6 | 3.2 | 0.00 | 0.20 | 0.03 | 92 | 998.6 |
| 20260509012230 | 7 | 315 | 0.0 | 0.0 | 0.00 | 0.20 | 0.03 | 92 | 998.3 |
| 20260509011730 | 7 | 315 | 0.0 | 0.0 | 0.00 | 0.23 | 0.03 | 92 | 998.3 |
| 20260509011230 | 7 | 315 | 0.0 | 0.0 | 0.00 | 0.23 | 0.03 | 92 | 998.4 |
| 20260509010729 | 7 | 315 | 0.0 | 0.0 | 0.00 | 0.28 | 0.03 | 92 | 998.4 |
| 20260509010228 | 7 | 315 | 0.0 | 3.2 | 0.00 | 0.36 | 0.03 | 92 | 998.7 |
| 20260509005725 | 7 | 315 | 0.0 | 3.2 | 0.00 | 0.43 | 0.03 | 92 | 998.4 |
| 20260509005223 | 7 | 315 | 1.6 | 3.2 | 0.00 | 0.46 | 0.03 | 92 | 998.4 |
| 20260509004720 | 7 | 315 | 1.6 | 3.2 | 0.00 | 0.48 | 0.03 | 92 | 998.4 |
| 20260509004216 | 7 | 315 | 0.0 | 3.2 | 0.00 | 0.61 | 0.03 | 92 | 998.4 |
| 20260509003713 | 8 | 315 | 0.0 | 3.2 | 0.00 | 0.64 | 0.03 | 93 | 998.5 |
| 20260509002701 | 8 | 315 | 0.0 | 3.2 | 0.00 | 0.64 | 0.03 | 93 | 998.2 |
| 20260509002203 | 8 | 315 | 1.6 | 3.2 | 0.00 | 0.64 | 0.03 | 93 | 998.2 |
| 20260509001701 | 8 | 315 | 1.6 | 3.2 | 0.00 | 0.64 | 0.03 | 92 | 998.1 |
| 20260509001202 | 8 | 315 | 0.0 | 0.0 | 0.00 | 0.64 | 0.03 | 92 | 997.8 |
| 20260509000703 | 8 | 315 | 0.0 | 0.0 | 0.00 | 0.64 | 0.03 | 92 | 997.6 |
| 20260509000204 | 8 | 315 | 0.0 | 3.2 | 0.00 | 0.64 | 0.03 | 92 | 997.6 |
| 20260508235201 | 8 | 315 | 1.6 | 3.2 | 0.00 | 0.64 | 0.03 | 92 | 998.0 |
| 20260508234701 | 8 | 315 | 3.2 | 3.2 | 0.00 | 0.64 | 0.03 | 92 | 997.9 |
| 20260508234201 | 8 | 315 | 0.0 | 3.2 | 0.00 | 0.64 | 0.03 | 92 | 997.5 |
| 20260508233201 | 9 | 315 | 3.2 | 3.2 | 0.00 | 0.64 | 0.03 | 91 | 997.6 |
| 20260508232701 | 9 | 315 | 3.2 | 3.2 | 0.00 | 0.64 | 0.03 | 91 | 997.3 |
| 20260508232202 | 9 | 315 | 1.6 | 3.2 | 0.00 | 0.64 | 0.03 | 90 | 997.3 |
| 20260508231701 | 9 | 315 | 0.0 | 3.2 | 0.00 | 0.64 | 0.03 | 90 | 997.5 |
| 20260508231201 | 9 | 315 | 0.0 | 3.2 | 0.00 | 0.64 | 0.03 | 90 | 997.3 |
| 20260508230701 | 9 | 315 | 0.0 | 3.2 | 0.00 | 0.64 | 0.03 | 90 | 997.5 |
| 20260508230201 | 9 | 315 | 0.0 | 3.2 | 0.00 | 0.64 | 0.03 | 90 | 997.5 |
| 20260508225701 | 9 | 315 | 0.0 | 3.2 | 0.00 | 0.64 | 0.03 | 89 | 997.2 |
| 20260508225201 | 10 | 315 | 0.0 | 3.2 | 0.00 | 0.66 | 0.03 | 88 | 997.5 |
| 20260508224700 | 10 | 315 | 0.0 | 3.2 | 0.00 | 0.71 | 0.03 | 86 | 997.3 |
| 20260508224202 | 10 | 315 | 0.0 | 3.2 | 0.00 | 0.76 | 0.03 | 85 | 997.1 |
| 20260508223705 | 10 | 315 | 0.0 | 3.2 | 0.00 | 0.79 | 0.03 | 85 | 997.2 |
| 20260508223202 | 10 | 315 | 1.6 | 3.2 | 0.00 | 0.81 | 0.03 | 86 | 997.5 |
| 20260508222703 | 10 | 315 | 0.0 | 3.2 | 0.00 | 0.84 | 0.03 | 85 | 997.2 |
| 20260508222201 | 10 | 315 | 0.0 | 3.2 | 0.00 | 0.89 | 0.03 | 84 | 997.2 |
| 20260508221701 | 10 | 315 | 1.6 | 3.2 | 0.00 | 0.94 | 0.03 | 84 | 997.1 |
| 20260508220201 | 11 | 315 | 3.2 | 3.2 | 0.00 | 1.12 | 0.03 | 82 | 996.7 |
| 20260508215201 | 12 | 315 | 0.0 | 3.2 | 0.00 | 1.45 | 0.03 | 74 | 996.6 |
| 20260508214702 | 12 | 315 | 0.0 | 3.2 | 0.00 | 1.52 | 0.03 | 74 | 996.4 |
| 20260508214204 | 12 | 315 | 1.6 | 3.2 | 0.00 | 1.55 | 0.03 | 76 | 996.4 |
| 20260508213702 | 12 | 0 | 0.0 | 3.2 | 0.00 | 1.60 | 0.03 | 75 | 996.2 |
| 20260508213201 | 12 | 0 | 1.6 | 3.2 | 0.00 | 1.98 | 0.03 | 75 | 996.1 |
| 20260508212701 | 12 | 0 | 1.6 | 3.2 | 0.00 | 2.36 | 0.03 | 76 | 996.1 |
| 20260508212203 | 13 | 0 | 1.6 | 3.2 | 0.00 | 2.72 | 0.03 | 73 | 996.1 |
| 20260508211702 | 13 | 0 | 1.6 | 3.2 | 0.00 | 2.79 | 0.03 | 72 | 996.0 |
| 20260508211201 | 13 | 0 | 1.6 | 3.2 | 0.00 | 2.84 | 0.03 | 74 | 995.9 |
| 20260508210202 | 13 | 0 | 1.6 | 3.2 | 0.00 | 3.00 | 0.03 | 68 | 995.9 |
| 20260508205701 | 14 | 270 | 0.0 | 3.2 | 0.00 | 3.00 | 0.03 | 67 | 996.0 |
| 20260508205201 | 15 | 0 | 1.6 | 6.4 | 0.00 | 3.02 | 0.03 | 65 | 995.7 |
| 20260508204703 | 15 | 315 | 3.2 | 6.4 | 0.00 | 3.02 | 0.03 | 63 | 996.0 |
| 20260508204201 | 15 | 270 | 3.2 | 6.4 | 0.00 | 3.43 | 0.03 | 66 | 996.1 |
| 20260508203202 | 15 | 23 | 1.6 | 6.4 | 0.00 | 3.51 | 0.03 | 65 | 995.9 |
| 20260508202701 | 16 | 0 | 1.6 | 3.2 | 0.00 | 3.51 | 0.03 | 64 | 995.9 |
| 20260508202202 | 16 | 0 | 3.2 | 6.4 | 0.00 | 3.51 | 0.03 | 63 | 995.6 |